2021-006AA (47437 NORAD) Tracking and Keplerian Element Data

This shows tracking and keplerian element data for the satellite.

Feedback or suggestion? Click here.




ElementValue
Catalog47437
Name2021-006AA
Epoch Orbit473
Epoch Day53.9013551
Epoch Year2021
RAAN117.1143
Inclination97.5035
Eccentricity0.0013859
Argument of Perigee140.8649
Mean Anonmoly219.3587
Mean Motion15.12843285
Decay Rate3.97E-06
L11 47437U 21006AA 21053.90135510 .00000397 00000-0 26233-4 0 9998
L22 47437 97.5035 117.1143 0013859 140.8649 219.3587 15.12843285 4730

Live tracking and technical data element details for 2021-006AA (NORAD 47437). 2021-006AA can be tracked NOW for your location showing map with azimuth and elevation plus other details from your city location.

Track the satellite on the map from your city or location and see movement details for azimuth, elevation, latitude, longitude, range, height, and movement on the map or in text.







IsCatalogInMostPopularTable: catalog: 47437, numindb: 13
Update: records affected: 1



GetName: 47437 2021-006AA

Hit Count: updated at: Tue, 13 Apr 2021 04:24:53 GMT